AKU315 NZWN-YSSY

Flight info

Callsign AKU315
Flight time 3h 2m
Altitude 40000
Route TANEN M636 PLUGA DCT RIKNI DCT MARLN
Aircraft B77L/H-SDE1E2E3FGHIJ2J3J4J5M1RWXY/LB1D1

Departure

Time 2026-05-04 23:19
Airport Wellington International Airport (NZWN)

Arrival

Time 2026-05-05 02:21
Airport Sydney Kingsford Smith International Airport (YSSY)
Time Latitude Longitude Altitude Speed Heading
2026-05-04 23:10 -41.32758 174.80967 31 ft 0 kts 142°
2026-05-04 23:12 -41.32757 174.80967 31 ft 0 kts 142°
2026-05-04 23:13 -41.32747 174.80954 30 ft 2 kts 137°
2026-05-04 23:13 -41.32736 174.80940 31 ft 2 kts 133°
2026-05-04 23:13 -41.32726 174.80925 31 ft 2 kts 123°
2026-05-04 23:14 -41.32718 174.80907 32 ft 2 kts 108°
2026-05-04 23:14 -41.32715 174.80888 33 ft 2 kts 88°
2026-05-04 23:14 -41.32717 174.80868 31 ft 2 kts 82°
2026-05-04 23:14 -41.32718 174.80847 29 ft 2 kts 66°
2026-05-04 23:15 -41.32726 174.80828 32 ft 2 kts 43°
2026-05-04 23:15 -41.32739 174.80815 31 ft 2 kts 15°
2026-05-04 23:15 -41.32745 174.80814 31 ft 0 kts
2026-05-04 23:16 -41.32732 174.80815 31 ft 10 kts
2026-05-04 23:16 -41.32688 174.80762 31 ft 10 kts 278°
2026-05-04 23:17 -41.32752 174.80682 31 ft 14 kts 179°
2026-05-04 23:17 -41.32853 174.80683 31 ft 16 kts 182°
2026-05-04 23:17 -41.32975 174.80672 31 ft 19 kts 184°
2026-05-04 23:17 -41.33108 174.80664 31 ft 20 kts 182°
2026-05-04 23:18 -41.33254 174.80654 31 ft 22 kts 184°
2026-05-04 23:18 -41.33409 174.80650 31 ft 23 kts 176°
2026-05-04 23:18 -41.33530 174.80661 31 ft 12 kts 175°
2026-05-04 23:18 -41.33542 174.80639 31 ft 3 kts 290°
2026-05-04 23:19 -41.33472 174.80638 31 ft 28 kts
2026-05-04 23:19 -41.32873 174.80680 33 ft 145 kts
2026-05-04 23:19 -41.31702 174.80747 1034 ft 165 kts
2026-05-04 23:19 -41.30529 174.80782 2414 ft 176 kts 359°
2026-05-04 23:20 -41.29238 174.80830 3144 ft 198 kts 358°
2026-05-04 23:20 -41.27740 174.80925 3673 ft 227 kts 360°
2026-05-04 23:20 -41.26196 174.80798 4883 ft 217 kts 340°
2026-05-04 23:20 -41.24816 174.79941 5646 ft 231 kts 337°
2026-05-04 23:21 -41.23153 174.79311 6246 ft 255 kts 346°
2026-05-04 23:21 -41.21410 174.78789 7355 ft 259 kts 347°
2026-05-04 23:21 -41.19657 174.78231 8484 ft 259 kts 346°
2026-05-04 23:21 -41.17938 174.77656 9663 ft 258 kts 346°
2026-05-04 23:22 -41.16204 174.77066 10812 ft 259 kts 346°
2026-05-04 23:22 -41.14399 174.76377 11261 ft 284 kts 338°
2026-05-04 23:22 -41.12731 174.74720 11445 ft 317 kts 314°
2026-05-04 23:22 -41.11224 174.72385 11822 ft 343 kts 311°
2026-05-04 23:23 -41.09674 174.69937 12880 ft 349 kts 311°
2026-05-04 23:23 -41.08090 174.67458 13958 ft 355 kts 312°
2026-05-04 23:23 -41.06452 174.64930 14822 ft 365 kts 312°
2026-05-04 23:23 -41.04778 174.62368 15769 ft 370 kts 312°
2026-05-04 23:24 -41.03122 174.59757 16771 ft 369 kts 307°
2026-05-04 23:24 -41.02018 174.56633 17573 ft 382 kts 287°
2026-05-04 23:24 -41.01706 174.53100 18379 ft 391 kts 271°
2026-05-04 23:24 -41.01780 174.49444 19062 ft 402 kts 269°
2026-05-04 23:25 -41.01892 174.45715 19824 ft 408 kts 269°
2026-05-04 23:25 -41.01968 174.43215 20364 ft 411 kts 269°
2026-05-04 23:25 -41.02106 174.38104 21401 ft 419 kts 270°
2026-05-04 23:25 -41.02192 174.34219 22170 ft 425 kts 270°
2026-05-04 23:26 -41.02243 174.31623 22731 ft 427 kts 270°
2026-05-04 23:26 -41.02315 174.27644 23420 ft 436 kts 270°
2026-05-04 23:26 -41.02385 174.23621 24221 ft 439 kts 270°
2026-05-04 23:26 -41.02454 174.19552 24848 ft 445 kts 270°
2026-05-04 23:27 -41.02522 174.15436 25559 ft 447 kts 270°
2026-05-04 23:27 -41.02538 174.11292 26162 ft 453 kts 273°
2026-05-04 23:27 -41.02350 174.07112 26842 ft 456 kts 276°
2026-05-04 23:27 -41.02068 174.02911 27498 ft 460 kts 276°
2026-05-04 23:28 -41.01776 173.98674 28094 ft 465 kts 276°
2026-05-04 23:28 -41.01503 173.94386 28745 ft 469 kts 275°
2026-05-04 23:28 -41.01256 173.90110 29305 ft 474 kts 275°
2026-05-04 23:28 -41.01017 173.85756 30005 ft 476 kts 274°
2026-05-04 23:29 -41.00775 173.81358 30523 ft 482 kts 274°
2026-05-04 23:29 -41.00426 173.76930 30992 ft 485 kts 278°
2026-05-04 23:29 -40.99870 173.72517 31519 ft 486 kts 281°
2026-05-04 23:29 -40.99217 173.68135 31980 ft 489 kts 282°
2026-05-04 23:30 -40.98526 173.63721 32510 ft 489 kts 282°
2026-05-04 23:30 -40.97843 173.59326 33132 ft 487 kts 282°
2026-05-04 23:30 -40.97181 173.54952 33762 ft 484 kts 281°
2026-05-04 23:30 -40.96539 173.50588 34451 ft 480 kts 281°
2026-05-04 23:31 -40.95914 173.46258 34997 ft 478 kts 281°
2026-05-04 23:31 -40.95299 173.41948 35445 ft 477 kts 280°
2026-05-04 23:31 -40.94686 173.37634 35876 ft 477 kts 280°
2026-05-04 23:31 -40.94074 173.33331 36309 ft 476 kts 280°
2026-05-04 23:32 -40.93459 173.29026 36735 ft 475 kts 280°
2026-05-04 23:32 -40.92843 173.24735 37164 ft 474 kts 280°
2026-05-04 23:32 -40.92226 173.20452 37585 ft 474 kts 280°
2026-05-04 23:32 -40.91615 173.16233 37971 ft 473 kts 280°
2026-05-04 23:33 -40.90995 173.11956 38358 ft 473 kts 280°
2026-05-04 23:33 -40.90374 173.07690 38740 ft 472 kts 280°
2026-05-04 23:33 -40.89752 173.03427 39121 ft 472 kts 280°
2026-05-04 23:33 -40.89129 172.99167 39424 ft 471 kts 280°
2026-05-04 23:34 -40.88505 172.94915 39731 ft 470 kts 280°
2026-05-04 23:34 -40.87882 172.90676 40045 ft 468 kts 280°
2026-05-04 23:34 -40.87259 172.86456 40354 ft 467 kts 280°
2026-05-04 23:34 -40.86635 172.82232 40473 ft 470 kts 280°
2026-05-04 23:35 -40.85390 172.73844 40503 ft 466 kts 280°
2026-05-04 23:35 -40.84146 172.65512 40521 ft 460 kts 280°
2026-05-04 23:36 -40.82906 172.57247 40511 ft 457 kts 280°
2026-05-04 23:36 -40.81666 172.49022 40524 ft 456 kts 280°
2026-05-04 23:37 -40.80419 172.40793 40510 ft 457 kts 280°
2026-05-04 23:37 -40.79167 172.32563 40523 ft 458 kts 281°
2026-05-04 23:38 -40.77914 172.24378 40529 ft 459 kts 281°
2026-05-04 23:38 -40.76642 172.16114 40522 ft 460 kts 281°
2026-05-04 23:39 -40.75360 172.07821 40525 ft 461 kts 281°
2026-05-04 23:39 -40.74069 171.99511 40531 ft 462 kts 281°
2026-05-04 23:40 -40.72773 171.91208 40524 ft 463 kts 281°
2026-05-04 23:40 -40.71469 171.82904 40527 ft 463 kts 281°
2026-05-04 23:41 -40.70158 171.74589 40526 ft 463 kts 281°
2026-05-04 23:41 -40.68852 171.66348 40521 ft 462 kts 281°
2026-05-04 23:42 -40.67532 171.58059 40527 ft 462 kts 281°
2026-05-04 23:42 -40.66209 171.49794 40524 ft 461 kts 281°
2026-05-04 23:43 -40.64882 171.41544 40521 ft 460 kts 281°
2026-05-04 23:43 -40.63552 171.33314 40521 ft 459 kts 281°
2026-05-04 23:44 -40.62216 171.25085 40519 ft 459 kts 281°
2026-05-04 23:44 -40.60878 171.16881 40521 ft 458 kts 281°
2026-05-04 23:45 -40.59535 171.08690 40526 ft 458 kts 281°
2026-05-04 23:45 -40.58195 171.00551 40530 ft 458 kts 281°
2026-05-04 23:46 -40.56843 170.92378 40517 ft 458 kts 281°
2026-05-04 23:46 -40.55482 170.84189 40519 ft 458 kts 281°
2026-05-04 23:47 -40.54116 170.76007 40519 ft 458 kts 281°
2026-05-04 23:47 -40.52745 170.67833 40518 ft 458 kts 282°
2026-05-04 23:48 -40.51370 170.59662 40522 ft 458 kts 282°
2026-05-04 23:48 -40.49900 170.51520 40519 ft 458 kts 284°
2026-05-04 23:49 -40.48139 170.43461 40518 ft 458 kts 285°
2026-05-04 23:49 -40.46340 170.35478 40515 ft 458 kts 285°
2026-05-04 23:50 -40.44554 170.27438 40521 ft 458 kts 285°
2026-05-04 23:50 -40.42785 170.19396 40515 ft 458 kts 285°
2026-05-04 23:51 -40.41020 170.11365 40509 ft 458 kts 285°
2026-05-04 23:51 -40.39249 170.03335 40509 ft 458 kts 285°
2026-05-04 23:52 -40.37473 169.95317 40507 ft 458 kts 285°
2026-05-04 23:52 -40.35692 169.87308 40510 ft 457 kts 285°
2026-05-04 23:53 -40.33905 169.79306 40506 ft 457 kts 285°
2026-05-04 23:53 -40.32116 169.71319 40506 ft 457 kts 285°
2026-05-04 23:54 -40.30321 169.63337 40505 ft 456 kts 285°
2026-05-04 23:54 -40.28522 169.55364 40500 ft 456 kts 285°
2026-05-04 23:55 -40.26731 169.47455 40498 ft 456 kts 285°
2026-05-04 23:56 -40.24018 169.35527 40496 ft 455 kts 285°
2026-05-04 23:56 -40.22204 169.27586 40496 ft 455 kts 285°
2026-05-04 23:57 -40.20386 169.19656 40495 ft 455 kts 285°
2026-05-04 23:57 -40.18564 169.11735 40494 ft 454 kts 286°
2026-05-04 23:58 -40.16739 169.03832 40486 ft 454 kts 286°
2026-05-04 23:58 -40.14907 168.95925 40487 ft 454 kts 286°
2026-05-04 23:59 -40.13086 168.88090 40486 ft 453 kts 286°
2026-05-04 23:59 -40.11247 168.80204 40483 ft 453 kts 286°
2026-05-05 00:00 -40.09403 168.72330 40483 ft 453 kts 286°
2026-05-05 00:00 -40.07554 168.64455 40480 ft 454 kts 286°
2026-05-05 00:01 -40.05696 168.56576 40480 ft 454 kts 286°
2026-05-05 00:01 -40.03834 168.48702 40479 ft 454 kts 286°
2026-05-05 00:02 -40.01965 168.40826 40475 ft 454 kts 286°
2026-05-05 00:02 -40.00105 168.33011 40468 ft 454 kts 286°
2026-05-05 00:03 -39.98225 168.25144 40465 ft 454 kts 286°
2026-05-05 00:03 -39.96340 168.17281 40480 ft 454 kts 286°
2026-05-05 00:04 -39.94449 168.09419 40465 ft 455 kts 286°
2026-05-05 00:04 -39.92549 168.01546 40464 ft 455 kts 286°
2026-05-05 00:05 -39.90645 167.93682 40459 ft 455 kts 287°
2026-05-05 00:05 -39.88733 167.85816 40455 ft 455 kts 287°
2026-05-05 00:06 -39.86819 167.77963 40454 ft 455 kts 287°
2026-05-05 00:06 -39.84899 167.70112 40454 ft 455 kts 287°
2026-05-05 00:07 -39.82984 167.62307 40452 ft 455 kts 287°
2026-05-05 00:07 -39.81054 167.54470 40447 ft 455 kts 287°
2026-05-05 00:08 -39.79118 167.46631 40445 ft 455 kts 287°
2026-05-05 00:08 -39.77177 167.38800 40445 ft 455 kts 287°
2026-05-05 00:09 -39.75231 167.30973 40440 ft 455 kts 287°
2026-05-05 00:09 -39.73282 167.23156 40440 ft 455 kts 287°
2026-05-05 00:10 -39.71323 167.15331 40435 ft 455 kts 287°
2026-05-05 00:10 -39.69363 167.07526 40432 ft 455 kts 287°
2026-05-05 00:11 -39.67398 166.99726 40427 ft 455 kts 287°
2026-05-05 00:11 -39.65439 166.91972 40442 ft 455 kts 287°
2026-05-05 00:12 -39.63464 166.84181 40419 ft 455 kts 287°
2026-05-05 00:12 -39.61483 166.76390 40419 ft 455 kts 287°
2026-05-05 00:13 -39.59496 166.68604 40416 ft 455 kts 287°
2026-05-05 00:13 -39.57505 166.60825 40429 ft 454 kts 287°
2026-05-05 00:14 -39.55509 166.53050 40409 ft 454 kts 287°
2026-05-05 00:14 -39.53507 166.45277 40406 ft 454 kts 288°
2026-05-05 00:15 -39.51502 166.37517 40406 ft 454 kts 288°
2026-05-05 00:15 -39.49503 166.29807 40413 ft 454 kts 288°
2026-05-05 00:16 -39.47486 166.22049 40416 ft 454 kts 288°
2026-05-05 00:16 -39.45468 166.14315 40393 ft 454 kts 288°
2026-05-05 00:17 -39.43447 166.06589 40387 ft 453 kts 288°
2026-05-05 00:17 -39.41763 166.00167 40389 ft 453 kts 288°
2026-05-05 00:18 -39.39733 165.92454 40387 ft 453 kts 288°
2026-05-05 00:18 -39.37701 165.84754 40394 ft 452 kts 288°
2026-05-05 00:19 -39.35664 165.77064 40391 ft 452 kts 288°
2026-05-05 00:19 -39.33623 165.69378 40375 ft 452 kts 288°
2026-05-05 00:20 -39.31581 165.61710 40372 ft 451 kts 288°
2026-05-05 00:20 -39.29534 165.54048 40373 ft 451 kts 288°
2026-05-05 00:21 -39.27486 165.46407 40382 ft 450 kts 288°
2026-05-05 00:21 -39.25433 165.38773 40375 ft 450 kts 288°
2026-05-05 00:22 -39.23378 165.31150 40362 ft 450 kts 288°
2026-05-05 00:22 -39.21318 165.23532 40358 ft 450 kts 288°
2026-05-05 00:23 -39.19254 165.15921 40363 ft 449 kts 289°
2026-05-05 00:23 -39.17186 165.08323 40363 ft 449 kts 289°
2026-05-05 00:24 -39.15127 165.00774 40363 ft 449 kts 289°
2026-05-05 00:24 -39.13051 164.93191 40363 ft 449 kts 289°
2026-05-05 00:25 -39.10970 164.85607 40356 ft 449 kts 289°
2026-05-05 00:25 -39.08883 164.78028 40339 ft 449 kts 289°
2026-05-05 00:26 -39.06792 164.70455 40351 ft 449 kts 289°
2026-05-05 00:26 -39.04696 164.62883 40346 ft 449 kts 289°
2026-05-05 00:27 -39.02597 164.55327 40339 ft 449 kts 289°
2026-05-05 00:27 -39.00491 164.47764 40341 ft 449 kts 289°
2026-05-05 00:28 -38.98382 164.40214 40330 ft 449 kts 289°
2026-05-05 00:28 -38.96267 164.32665 40330 ft 448 kts 289°
2026-05-05 00:29 -38.94164 164.25179 40326 ft 448 kts 289°
2026-05-05 00:29 -38.92042 164.17649 40324 ft 448 kts 289°
2026-05-05 00:30 -38.89917 164.10128 40321 ft 448 kts 289°
2026-05-05 00:30 -38.87788 164.02617 40319 ft 448 kts 289°
2026-05-05 00:31 -38.85653 163.95103 40324 ft 448 kts 290°
2026-05-05 00:31 -38.83513 163.87596 40319 ft 448 kts 290°
2026-05-05 00:32 -38.81371 163.80100 40309 ft 448 kts 290°
2026-05-05 00:32 -38.79224 163.72611 40312 ft 448 kts 290°
2026-05-05 00:33 -38.77072 163.65123 40309 ft 447 kts 290°
2026-05-05 00:33 -38.74930 163.57694 40309 ft 447 kts 290°
2026-05-05 00:34 -38.72772 163.50226 40307 ft 447 kts 290°
2026-05-05 00:34 -38.70609 163.42763 40299 ft 447 kts 290°
2026-05-05 00:35 -38.68442 163.35309 40298 ft 446 kts 290°
2026-05-05 00:35 -38.66272 163.27865 40295 ft 446 kts 290°
2026-05-05 00:36 -38.64096 163.20418 40295 ft 446 kts 290°
2026-05-05 00:36 -38.61920 163.12992 40286 ft 446 kts 290°
2026-05-05 00:37 -38.59743 163.05579 40285 ft 445 kts 290°
2026-05-05 00:37 -38.57567 162.98220 40286 ft 445 kts 290°
2026-05-05 00:38 -38.55294 162.90862 40283 ft 445 kts 291°
2026-05-05 00:38 -38.52993 162.83534 40280 ft 444 kts 291°
2026-05-05 00:39 -38.50698 162.76214 40276 ft 444 kts 291°
2026-05-05 00:39 -38.48405 162.68892 40272 ft 444 kts 291°
2026-05-05 00:40 -38.46113 162.61583 40269 ft 443 kts 291°
2026-05-05 00:40 -38.43833 162.54329 40268 ft 443 kts 291°
2026-05-05 00:41 -38.41531 162.47027 40263 ft 443 kts 291°
2026-05-05 00:41 -38.39231 162.39747 40257 ft 443 kts 291°
2026-05-05 00:42 -38.36927 162.32475 40263 ft 442 kts 291°
2026-05-05 00:42 -38.34618 162.25209 40261 ft 442 kts 291°
2026-05-05 00:43 -38.32308 162.17956 40250 ft 442 kts 291°
2026-05-05 00:43 -38.29994 162.10709 40246 ft 442 kts 291°
2026-05-05 00:44 -38.27677 162.03472 40249 ft 441 kts 291°
2026-05-05 00:44 -38.25358 161.96246 40240 ft 441 kts 291°
2026-05-05 00:45 -38.23037 161.89032 40239 ft 441 kts 291°
2026-05-05 00:45 -38.20728 161.81875 40238 ft 440 kts 291°
2026-05-05 00:46 -38.18400 161.74677 40234 ft 440 kts 291°
2026-05-05 00:46 -38.16067 161.67483 40235 ft 440 kts 291°
2026-05-05 00:47 -38.13733 161.60303 40229 ft 439 kts 291°
2026-05-05 00:47 -38.11393 161.53122 40231 ft 439 kts 291°
2026-05-05 00:48 -38.09054 161.45961 40236 ft 439 kts 291°
2026-05-05 00:48 -38.06709 161.38799 40221 ft 439 kts 292°
2026-05-05 00:49 -38.04363 161.31655 40218 ft 438 kts 292°
2026-05-05 00:49 -38.02029 161.24563 40219 ft 438 kts 292°
2026-05-05 00:50 -37.99678 161.17436 40211 ft 438 kts 292°
2026-05-05 00:50 -37.97322 161.10315 40214 ft 438 kts 292°
2026-05-05 00:51 -37.94967 161.03211 40212 ft 437 kts 292°
2026-05-05 00:51 -37.92610 160.96119 40214 ft 436 kts 292°
2026-05-05 00:52 -37.90254 160.89048 40200 ft 436 kts 292°
2026-05-05 00:52 -37.87893 160.81981 40187 ft 435 kts 292°
2026-05-05 00:53 -37.85533 160.74933 40184 ft 435 kts 292°
2026-05-05 00:53 -37.83172 160.67896 40195 ft 434 kts 292°
2026-05-05 00:54 -37.80812 160.60881 40199 ft 433 kts 292°
2026-05-05 00:54 -37.78446 160.53866 40187 ft 433 kts 292°
2026-05-05 00:55 -37.76096 160.46913 40173 ft 432 kts 292°
2026-05-05 00:55 -37.73731 160.39934 40171 ft 432 kts 292°
2026-05-05 00:56 -37.71363 160.32963 40186 ft 432 kts 292°
2026-05-05 00:56 -37.68993 160.26002 40183 ft 431 kts 292°
2026-05-05 00:57 -37.66618 160.19041 40183 ft 431 kts 292°
2026-05-05 00:57 -37.64244 160.12101 40182 ft 430 kts 292°
2026-05-05 00:58 -37.61885 160.05221 40166 ft 430 kts 292°
2026-05-05 00:58 -37.59510 159.98312 40158 ft 429 kts 292°
2026-05-05 00:59 -37.57136 159.91419 40156 ft 428 kts 292°
2026-05-05 00:59 -37.54761 159.84542 40167 ft 427 kts 292°
2026-05-05 01:00 -37.52385 159.77676 40154 ft 427 kts 292°
2026-05-05 01:00 -37.50010 159.70830 40154 ft 426 kts 292°
2026-05-05 01:01 -37.47634 159.63994 40149 ft 425 kts 292°
2026-05-05 01:01 -37.45261 159.57184 40149 ft 425 kts 292°
2026-05-05 01:02 -37.42899 159.50423 40145 ft 424 kts 292°
2026-05-05 01:02 -37.40522 159.43630 40140 ft 424 kts 293°
2026-05-05 01:03 -37.38146 159.36859 40146 ft 423 kts 293°
2026-05-05 01:03 -37.35765 159.30088 40147 ft 423 kts 293°
2026-05-05 01:04 -37.33379 159.23318 40138 ft 423 kts 293°
2026-05-05 01:04 -37.29802 159.13195 40137 ft 423 kts 293°
2026-05-05 01:05 -37.27425 159.06489 40133 ft 423 kts 293°
2026-05-05 01:05 -37.25031 158.99747 40130 ft 423 kts 293°
2026-05-05 01:06 -37.22631 158.93007 40128 ft 423 kts 293°
2026-05-05 01:06 -37.20227 158.86268 40130 ft 423 kts 293°
2026-05-05 01:07 -37.18225 158.80668 40121 ft 423 kts 293°
2026-05-05 01:07 -37.15819 158.73951 40123 ft 422 kts 293°
2026-05-05 01:08 -37.13404 158.67223 40118 ft 422 kts 293°
2026-05-05 01:08 -37.10989 158.60509 40112 ft 422 kts 293°
2026-05-05 01:09 -37.08574 158.53806 40114 ft 422 kts 293°
2026-05-05 01:09 -37.06154 158.47114 40108 ft 421 kts 294°
2026-05-05 01:10 -37.03731 158.40432 40112 ft 421 kts 294°
2026-05-05 01:10 -37.01309 158.33763 40109 ft 421 kts 294°
2026-05-05 01:11 -36.99139 158.27799 40105 ft 420 kts 294°
2026-05-05 01:11 -36.96736 158.21206 40104 ft 419 kts 294°
2026-05-05 01:12 -36.94312 158.14571 40105 ft 419 kts 294°
2026-05-05 01:12 -36.91888 158.07950 40098 ft 418 kts 294°
2026-05-05 01:13 -36.89461 158.01334 40099 ft 418 kts 294°
2026-05-05 01:13 -36.87036 157.94739 40096 ft 417 kts 294°
2026-05-05 01:14 -36.84627 157.88201 40094 ft 417 kts 294°
2026-05-05 01:14 -36.82195 157.81612 40091 ft 418 kts 294°
2026-05-05 01:15 -36.79759 157.75031 40089 ft 418 kts 294°
2026-05-05 01:15 -36.77321 157.68454 40087 ft 418 kts 294°
2026-05-05 01:16 -36.75292 157.62995 40083 ft 418 kts 294°
2026-05-05 01:16 -36.73521 157.58234 40085 ft 418 kts 295°
2026-05-05 01:17 -36.71073 157.51667 40079 ft 418 kts 295°
2026-05-05 01:17 -36.69345 157.47041 40077 ft 418 kts 295°
2026-05-05 01:18 -36.66892 157.40484 40073 ft 418 kts 295°
2026-05-05 01:18 -36.64625 157.34437 40070 ft 418 kts 295°
2026-05-05 01:19 -36.62177 157.27921 40069 ft 418 kts 295°
2026-05-05 01:19 -36.59723 157.21403 40070 ft 418 kts 295°
2026-05-05 01:20 -36.57253 157.14855 40068 ft 418 kts 295°
2026-05-05 01:20 -36.54780 157.08312 40067 ft 418 kts 295°
2026-05-05 01:21 -36.52303 157.01775 40067 ft 418 kts 295°
2026-05-05 01:21 -36.49821 156.95236 40065 ft 418 kts 295°
2026-05-05 01:22 -36.47348 156.88734 40065 ft 418 kts 295°
2026-05-05 01:22 -36.44859 156.82203 40064 ft 418 kts 295°
2026-05-05 01:23 -36.42360 156.75661 40053 ft 418 kts 295°
2026-05-05 01:23 -36.39864 156.69140 40055 ft 418 kts 295°
2026-05-05 01:24 -36.37364 156.62621 40052 ft 418 kts 295°
2026-05-05 01:24 -36.34861 156.56109 40063 ft 418 kts 295°
2026-05-05 01:25 -36.32350 156.49589 40061 ft 418 kts 296°
2026-05-05 01:25 -36.29839 156.43082 40052 ft 418 kts 296°
2026-05-05 01:26 -36.27341 156.36622 40055 ft 418 kts 296°
2026-05-05 01:26 -36.24821 156.30119 40053 ft 418 kts 296°
2026-05-05 01:27 -36.22300 156.23627 40056 ft 418 kts 296°
2026-05-05 01:27 -36.19769 156.17120 40052 ft 418 kts 296°
2026-05-05 01:28 -36.17238 156.10630 40051 ft 419 kts 296°
2026-05-05 01:28 -36.14721 156.04185 40055 ft 418 kts 296°
2026-05-05 01:29 -36.12180 155.97693 40053 ft 418 kts 296°
2026-05-05 01:29 -36.09643 155.91225 40051 ft 418 kts 296°
2026-05-05 01:30 -36.07102 155.84760 40056 ft 418 kts 296°
2026-05-05 01:30 -36.04549 155.78278 40053 ft 419 kts 296°
2026-05-05 01:31 -36.01999 155.71816 40051 ft 419 kts 296°
2026-05-05 01:31 -35.99439 155.65342 40057 ft 419 kts 296°
2026-05-05 01:32 -35.96877 155.58876 40060 ft 420 kts 296°
2026-05-05 01:32 -35.94310 155.52408 40060 ft 420 kts 296°
2026-05-05 01:33 -35.91749 155.45971 40060 ft 420 kts 296°
2026-05-05 01:33 -35.89167 155.39494 40059 ft 421 kts 296°
2026-05-05 01:34 -35.86579 155.33013 40062 ft 421 kts 296°
2026-05-05 01:34 -35.83990 155.26543 40061 ft 421 kts 296°
2026-05-05 01:35 -35.81394 155.20069 40061 ft 421 kts 296°
2026-05-05 01:35 -35.78796 155.13602 40063 ft 421 kts 296°
2026-05-05 01:36 -35.76211 155.07179 40066 ft 421 kts 296°
2026-05-05 01:36 -35.73605 155.00718 40070 ft 421 kts 296°
2026-05-05 01:37 -35.70995 154.94259 40067 ft 421 kts 296°
2026-05-05 01:37 -35.68383 154.87808 40071 ft 421 kts 296°
2026-05-05 01:38 -35.65771 154.81367 40070 ft 421 kts 296°
2026-05-05 01:38 -35.63154 154.74929 40072 ft 421 kts 296°
2026-05-05 01:39 -35.60271 154.68676 40080 ft 421 kts 303°
2026-05-05 01:39 -35.56682 154.63050 40080 ft 421 kts 309°
2026-05-05 01:40 -35.52844 154.57599 40075 ft 421 kts 309°
2026-05-05 01:40 -35.49000 154.52143 40077 ft 421 kts 309°
2026-05-05 01:41 -35.45171 154.46692 40076 ft 421 kts 309°
2026-05-05 01:41 -35.41338 154.41232 40080 ft 421 kts 309°
2026-05-05 01:42 -35.38174 154.36729 40079 ft 421 kts 309°
2026-05-05 01:42 -35.34344 154.31284 40078 ft 422 kts 309°
2026-05-05 01:43 -35.30509 154.25841 40079 ft 422 kts 309°
2026-05-05 01:43 -35.26675 154.20408 40077 ft 422 kts 309°
2026-05-05 01:44 -35.22837 154.14979 40085 ft 422 kts 309°
2026-05-05 01:44 -35.19024 154.09593 40084 ft 421 kts 309°
2026-05-05 01:45 -35.15180 154.04172 40083 ft 421 kts 309°
2026-05-05 01:45 -35.11335 153.98758 40085 ft 421 kts 309°
2026-05-05 01:46 -35.07490 153.93353 40087 ft 421 kts 309°
2026-05-05 01:46 -35.03642 153.87952 40082 ft 421 kts 309°
2026-05-05 01:47 -34.99795 153.82561 40086 ft 421 kts 309°
2026-05-05 01:47 -34.95972 153.77213 40088 ft 421 kts 309°
2026-05-05 01:48 -34.92125 153.71839 40084 ft 421 kts 309°
2026-05-05 01:48 -34.88278 153.66473 40090 ft 420 kts 309°
2026-05-05 01:49 -34.84504 153.61216 40089 ft 420 kts 309°
2026-05-05 01:49 -34.80659 153.55869 40090 ft 419 kts 309°
2026-05-05 01:50 -34.76862 153.50599 40081 ft 414 kts 309°
2026-05-05 01:50 -34.73082 153.45358 40084 ft 410 kts 309°
2026-05-05 01:51 -34.69374 153.40228 39738 ft 398 kts 308°
2026-05-05 01:51 -34.67558 153.37719 39327 ft 394 kts 308°
2026-05-05 01:51 -34.65756 153.35229 38899 ft 390 kts 308°
2026-05-05 01:52 -34.63971 153.32763 38404 ft 388 kts 308°
2026-05-05 01:52 -34.62198 153.30316 37878 ft 384 kts 308°
2026-05-05 01:52 -34.60444 153.27897 37422 ft 380 kts 308°
2026-05-05 01:52 -34.58705 153.25501 36980 ft 376 kts 308°
2026-05-05 01:53 -34.56980 153.23126 36528 ft 372 kts 308°
2026-05-05 01:53 -34.55283 153.20790 36100 ft 368 kts 308°
2026-05-05 01:53 -34.53597 153.18472 35664 ft 364 kts 308°
2026-05-05 01:53 -34.51929 153.16180 35221 ft 361 kts 308°
2026-05-05 01:54 -34.50277 153.13910 34788 ft 358 kts 308°
2026-05-05 01:54 -34.48637 153.11659 34356 ft 355 kts 308°
2026-05-05 01:54 -34.47033 153.09458 33912 ft 352 kts 308°
2026-05-05 01:54 -34.45419 153.07246 33423 ft 348 kts 308°
2026-05-05 01:55 -34.43823 153.05059 32981 ft 345 kts 308°
2026-05-05 01:55 -34.42240 153.02894 32547 ft 341 kts 308°
2026-05-05 01:55 -34.40680 153.00759 32130 ft 337 kts 308°
2026-05-05 01:55 -34.39131 152.98641 31730 ft 333 kts 308°
2026-05-05 01:56 -34.37603 152.96553 31323 ft 330 kts 308°
2026-05-05 01:56 -34.36598 152.95179 31040 ft 328 kts 308°
2026-05-05 01:56 -34.34591 152.92440 30504 ft 323 kts 308°
2026-05-05 01:56 -34.33606 152.91095 30251 ft 321 kts 308°
2026-05-05 01:57 -34.32126 152.89077 29803 ft 318 kts 308°
2026-05-05 01:57 -34.30662 152.87081 29369 ft 315 kts 308°
2026-05-05 01:57 -34.29214 152.85110 28971 ft 312 kts 308°
2026-05-05 01:57 -34.27783 152.83161 28571 ft 308 kts 308°
2026-05-05 01:58 -34.25913 152.80617 28077 ft 304 kts 308°
2026-05-05 01:58 -34.24967 152.79331 27822 ft 302 kts 308°
2026-05-05 01:58 -34.23579 152.77444 27449 ft 299 kts 308°
2026-05-05 01:58 -34.22219 152.75597 27093 ft 296 kts 308°
2026-05-05 01:59 -34.20838 152.73721 26730 ft 294 kts 308°
2026-05-05 01:59 -34.19498 152.71902 26381 ft 292 kts 308°
2026-05-05 01:59 -34.18151 152.70073 26027 ft 291 kts 308°
2026-05-05 01:59 -34.17600 152.69326 25888 ft 292 kts 308°
2026-05-05 02:00 -34.16235 152.67474 25545 ft 300 kts 308°
2026-05-05 02:00 -34.14819 152.65552 25168 ft 312 kts 308°
2026-05-05 02:00 -34.13360 152.63575 24790 ft 317 kts 308°
2026-05-05 02:00 -34.11895 152.61594 24405 ft 316 kts 308°
2026-05-05 02:01 -34.10434 152.59621 24024 ft 314 kts 308°
2026-05-05 02:01 -34.09201 152.57482 23634 ft 308 kts 296°
2026-05-05 02:01 -34.08348 152.55130 23208 ft 306 kts 289°
2026-05-05 02:01 -34.07788 152.52670 22793 ft 303 kts 280°
2026-05-05 02:02 -34.07523 152.50194 22437 ft 300 kts 277°
2026-05-05 02:02 -34.07306 152.47703 22062 ft 298 kts 277°
2026-05-05 02:02 -34.07096 152.45221 21687 ft 295 kts 277°
2026-05-05 02:02 -34.06884 152.42764 21327 ft 293 kts 277°
2026-05-05 02:03 -34.06669 152.40328 20979 ft 291 kts 277°
2026-05-05 02:03 -34.06467 152.38097 20649 ft 288 kts 277°
2026-05-05 02:03 -34.06247 152.35700 20301 ft 287 kts 277°
2026-05-05 02:03 -34.06025 152.33306 19955 ft 288 kts 277°
2026-05-05 02:04 -34.05799 152.30892 19613 ft 293 kts 277°
2026-05-05 02:04 -34.05568 152.28430 19251 ft 304 kts 277°
2026-05-05 02:04 -34.05327 152.25875 18869 ft 308 kts 277°
2026-05-05 02:04 -34.05084 152.23309 18486 ft 308 kts 277°
2026-05-05 02:05 -34.04841 152.20745 18056 ft 307 kts 277°
2026-05-05 02:05 -34.04600 152.18199 17655 ft 304 kts 277°
2026-05-05 02:05 -34.04360 152.15678 17269 ft 301 kts 277°
2026-05-05 02:05 -34.04123 152.13187 16886 ft 298 kts 277°
2026-05-05 02:06 -34.03887 152.10724 16525 ft 294 kts 277°
2026-05-05 02:06 -34.03698 152.08290 16094 ft 290 kts 270°
2026-05-05 02:06 -34.03950 152.05896 15375 ft 287 kts 261°
2026-05-05 02:06 -34.04346 152.03540 14622 ft 286 kts 261°
2026-05-05 02:07 -34.04744 152.01201 13917 ft 283 kts 261°
2026-05-05 02:07 -34.05130 151.98919 13541 ft 274 kts 262°
2026-05-05 02:07 -34.05505 151.96681 13181 ft 270 kts 262°
2026-05-05 02:07 -34.05871 151.94477 12853 ft 266 kts 262°
2026-05-05 02:08 -34.06229 151.92307 12531 ft 262 kts 262°
2026-05-05 02:08 -34.06580 151.90170 12217 ft 258 kts 262°
2026-05-05 02:08 -34.06926 151.88045 11920 ft 259 kts 262°
2026-05-05 02:08 -34.07276 151.85893 11623 ft 265 kts 262°
2026-05-05 02:09 -34.07635 151.83672 11308 ft 274 kts 262°
2026-05-05 02:09 -34.07997 151.81434 10981 ft 276 kts 261°
2026-05-05 02:09 -34.08367 151.79150 10643 ft 272 kts 261°
2026-05-05 02:09 -34.08723 151.76953 10328 ft 268 kts 261°
2026-05-05 02:10 -34.09072 151.74799 10220 ft 256 kts 262°
2026-05-05 02:10 -34.09407 151.72732 9983 ft 249 kts 262°
2026-05-05 02:10 -34.09724 151.70766 9626 ft 241 kts 261°
2026-05-05 02:10 -34.10037 151.68815 9317 ft 233 kts 261°
2026-05-05 02:11 -34.10346 151.66889 9057 ft 238 kts 261°
2026-05-05 02:11 -34.10668 151.64862 8779 ft 253 kts 261°
2026-05-05 02:11 -34.11005 151.62750 8462 ft 258 kts 261°
2026-05-05 02:11 -34.11344 151.60633 8154 ft 255 kts 261°
2026-05-05 02:12 -34.11678 151.58552 7847 ft 250 kts 261°
2026-05-05 02:12 -34.12321 151.54525 7292 ft 239 kts 260°
2026-05-05 02:12 -34.12633 151.52563 7019 ft 238 kts 260°
2026-05-05 02:13 -34.12947 151.50592 6753 ft 240 kts 259°
2026-05-05 02:13 -34.13264 151.48599 6490 ft 244 kts 259°
2026-05-05 02:13 -34.13584 151.46579 6193 ft 245 kts 259°
2026-05-05 02:13 -34.13901 151.44577 5910 ft 241 kts 259°
2026-05-05 02:14 -34.14183 151.42800 5657 ft 242 kts 259°
2026-05-05 02:14 -34.14487 151.40876 5387 ft 244 kts 258°
2026-05-05 02:14 -34.14807 151.38855 5110 ft 246 kts 258°
2026-05-05 02:14 -34.15129 151.36817 4832 ft 248 kts 258°
2026-05-05 02:15 -34.15451 151.34779 4538 ft 246 kts 257°
2026-05-05 02:15 -34.15770 151.32757 4250 ft 243 kts 257°
2026-05-05 02:15 -34.16082 151.30770 3981 ft 239 kts 257°
2026-05-05 02:15 -34.16390 151.28810 3708 ft 236 kts 257°
2026-05-05 02:16 -34.16674 151.26890 3553 ft 224 kts 262°
2026-05-05 02:16 -34.16386 151.25108 3424 ft 217 kts 297°
2026-05-05 02:16 -34.15307 151.23890 3329 ft 211 kts 326°
2026-05-05 02:16 -34.14044 151.23162 3235 ft 198 kts 332°
2026-05-05 02:17 -34.12779 151.22597 3119 ft 189 kts 334°
2026-05-05 02:17 -34.11546 151.22095 3048 ft 186 kts 337°
2026-05-05 02:17 -34.10294 151.21695 2781 ft 185 kts 342°
2026-05-05 02:17 -34.09049 151.21357 2540 ft 182 kts 343°
2026-05-05 02:18 -34.07836 151.21039 2314 ft 177 kts 343°
2026-05-05 02:18 -34.06668 151.20735 2064 ft 166 kts 343°
2026-05-05 02:18 -34.05563 151.20446 1890 ft 165 kts 344°
2026-05-05 02:18 -34.04435 151.20152 1626 ft 161 kts 343°
2026-05-05 02:19 -34.03380 151.19883 1424 ft 150 kts 343°
2026-05-05 02:19 -34.02399 151.19624 1249 ft 148 kts 342°
2026-05-05 02:19 -34.01548 151.19403 1058 ft 147 kts 343°
2026-05-05 02:19 -34.00583 151.19146 875 ft 138 kts 343°
2026-05-05 02:20 -33.99653 151.18903 694 ft 137 kts 341°
2026-05-05 02:20 -33.98717 151.18659 504 ft 138 kts 342°
2026-05-05 02:20 -33.97776 151.18414 320 ft 138 kts 342°
2026-05-05 02:20 -33.96852 151.18185 140 ft 133 kts 341°
2026-05-05 02:21 -33.95953 151.17944 34 ft 128 kts 342°
2026-05-05 02:21 -33.95178 151.17739 33 ft 97 kts 348°
2026-05-05 02:21 -33.94640 151.17605 34 ft 61 kts 347°
2026-05-05 02:21 -33.94289 151.17510 35 ft 46 kts 348°
2026-05-05 02:22 -33.94027 151.17442 31 ft 27 kts 348°
2026-05-05 02:22 -33.93943 151.17353 31 ft 17 kts 266°
2026-05-05 02:22 -33.93954 151.17255 33 ft 6 kts 287°
2026-05-05 02:22 -33.93894 151.17208 33 ft 20 kts 345°
2026-05-05 02:23 -33.93754 151.17168 33 ft 20 kts 347°
2026-05-05 02:23 -33.93626 151.17135 34 ft 18 kts 347°
2026-05-05 02:23 -33.93527 151.17100 34 ft 6 kts 321°
2026-05-05 02:23 -33.93503 151.17069 34 ft 11 kts 300°
2026-05-05 02:24 -33.93504 151.16955 34 ft 16 kts 289°
2026-05-05 02:24 -33.93415 151.16899 34 ft 12 kts 346°
2026-05-05 02:24 -33.93391 151.16833 34 ft 10 kts 258°
2026-05-05 02:24 -33.93401 151.16779 35 ft 2 kts 258°
2026-05-05 02:25 -33.93401 151.16776 35 ft 0 kts 259°